Location: DARK SKY Beskydy - Park tmavé oblohy, www.darkskybeskydy.cz
(49.4926°N, 18.5016°E)
Time: 18:37:52
(UTC+02:00)

PCSat - Pass Details

Date: 13 August 2024
Orbit: 781 x 793 km, 67.1° (Epoch: 08 September)

Event Time Altitude Azimuth Distance (km) Brightness Sun altitude
Rises 21:10:54 0° 304° (NW) 3,295 15.2 -10.0°
Reaches altitude 10° 21:15:05 10° 335° (NNW) 2,368 13.1 -10.5°
Maximum altitude 21:17:09 12° 358° (N) 2,226 12.5 -10.8°
Drops below altitude 10° 21:19:13 10° 20° (NNE) 2,369 12.3 -11.0°
Sets 21:23:24 0° 51° (NE) 3,299 12.7 -11.6°
